Погода в Рубцовске

Хотите узнать прогноз погоды в Рубцовске? Тогда Вам сюда: Погода в Рубцовске

Поиск расширенной информации на нашем сайте:

Полезная информация:

Новости сайта



02.01.2020
Опубликован Долгосрочный прогноз погоды по городам России и ближнего зарубежья на январь 2020 года.
Карты: Прогноз на январь и февраль 2020 года, Сравнение прогнозируемой аномалии приземной температуры воздуха на январь 2020 года по разным моделям.




Погода в Рубцовске - сегодня

Время (UTC), дата Ветер
(°,м/с) 
Видим.   Явления Облачность Т
(°С)
Тd
(°С)
f(%) Тe
(°С)
Pmin
(гПа)
dP
(гПа)
Po
(мм)
O2
(г/м3)
Тmin Tmax R s Состояние
почвы
18 24.01.20 230 (ЮЗ) 20000 м    10/0 верхняя 
[Ci sp]
-8.3 -11.1 80 -12  1011.8  -2.1  738  308           
21 24.01.20 180 (Ю) 20000 м    10/0 верхняя 
[Ci sp]
-8 -10.7 81 -11  1009.9  -1.9  736  307           
00 25.01.20 180 (Ю) 10-13{15}  20000 м  позёмок  10/10 1000 м 
[Sc]
+0.1 -6.3 62 -5  1006.8  -2  735  297  -8.3      неравномерный
сухой снег
100% 
03 25.01.20 200 (Ю) 14-18{20}  0500 м  ливневой снег  10/10 300 м кучево-дожд. 
[Cb cap]
-1.5 -2.6 92 -8  1009.2  736  299           
06 25.01.20 200 (Ю) 12-15{18}  20000 м  позёмок{ливн. осадки}  10/10 600 м 
[Sc]
-0.2 -3.8 77 -6  1012.8  3.6  739  298           
09 25.01.20 230 (ЮЗ) 10-12{16}  20000 м  позёмок{ливн. осадки}  10/10 600 м 
[Sc]
-1.1 -3 87 -6  1015.4  2.5  741  300           
12 25.01.20 200 (Ю) 6-10{13}  20000 м  {ливн. осадки}  10/10 600 м 
[Sc]
-3 -7.6 71 -7  1017.9  2.3  743  303    +1  0.0     
15 25.01.20 230 (ЮЗ) 4{10}  20000 м    10/10 600 м 
[Sc]
-4.5 -9.2 70 -8  1019  0.8  743  305           
18 25.01.20 220 (ЮЗ) 10 км  слаб. ливневой снег  10/10 600 м кучево-дожд. 
[Cb cap]
-5.3 -7.1 87 -9  1019.4  0.3  743  306           
21 25.01.20 210 (ЮЗ) 10 км  слаб. ливневой снег  10/10 600 м кучево-дожд. 
[Cb cap]
-5.1 -6.5 90 -10  1019.6  0.2  744  306           
00 26.01.20 210 (ЮЗ) 4{10}  20000 м  {ливн. осадки}  ясно 
-9.7 -13.3 75 -14  1022.1  745  312  -9.7    0.0  неравномерный
сухой снег
100% 
03 26.01.20 190 (Ю) 20000 м    10/0 верхняя 
[Ci fib]
-12.6 -15.3 80 -18  1025.5  747  317  -13.2         
06 26.01.20 200 (Ю) 20000 м  позёмок  3/0 верхняя 
[Ci sp]
-11.4 -16.7 65 -17  1026.8  1.4  748  316           
09 26.01.20 210 (ЮЗ) 6{10}  20000 м  позёмок  10/0 верхняя 
[Ci sp]
-9.8 -16.3 59 -15  1026.9  0.2  749  314           
12 26.01.20 180 (Ю) 20000 м    10/0 верхняя 
[Ci sp]
-9.4 -17.7 51 -14  1026.7  749  314    -9.1       
15 26.01.20 170 (Ю) 7{11}  20000 м  позёмок  ясно 
-10.7 -16 65 -17  1025.8  -1.2  748  315           
18 26.01.20 170 (Ю) 7-12{15}  20000 м  позёмок  10/0 верхняя 
[Ci sp]
-10.5 -14.9 70 -17  1024.5  -1.2  747  314           
21 26.01.20 170 (Ю) 8-12{13}  20000 м  позёмок  10/0 средняя 
[Ac und]
-9.1 -16.5 55 -15  1022.4  -1.8  745  312           
00 27.01.20 170 (Ю) 11-15{16}  20000 м  позёмок  10/0 верхняя 
[Ci fib]
-9.4 -17.7 51 -17  1020.6  -1.8  744  312  -11.8      неравномерный
сухой снег
100% 
03 27.01.20 180 (Ю) 10-15{16}  20000 м  позёмок  10/5 1000 м средняя, верхняя 
[Sc|Ac und|Ci sp]
-8 -13.7 64 -15  1019.4  -1.1  743  310           
06 27.01.20 170 (Ю) 10-14{15}  20000 м  позёмок  10/3 1000 м средняя, верхняя 
[Sc|Ac und|Ci sp]
-4.2 -8 75 -10  1017.2  -1.6  742  304           
09 27.01.20 180 (Ю) 11-16{17}  2000 м  слаб. ливневой снег  10/10 300 м кучево-дожд. 
[Cb cap]
-2.4 -6.8 72 -8  1015.4  -1.6  741  302           
12 27.01.20 180 (Ю) 10-14{17}  4000 м  слаб. ливневой снег  10/10 300 м кучево-дожд. 
[Cb cap]
-2.1 -4.6 83 -7  1014.6  -0.8  740  301    -2  0.0     
15 27.01.20 180 (Ю) 13-17{19}  0500 м  ливневой снег  10/10 240 м кучево-дожд. 
[Cb cap]
-1.5 -3.2 88 -8  1014.1  -0.4  740  300           
18 27.01.20 190 (Ю) 12-16{18}  0500 м  ливневой снег  10/10 240 м кучево-дожд. 
[Cb cap]
-2.4 -3.6 91 -8  1014.6  0.4  740  301           
Время (UTC), дата Ветер
(°,м/с) 
Видим.   Явления Облачность Т
(°С)
Тd
(°С)
f(%) Тe
(°С)
Pmin
(гПа)
dP
(гПа)
Po
(мм)
O2
(г/м3)
Тmin Tmax R s Состояние
почвы

Для получения пояснительной информации подведите курсор к названию столбца.

ПОГОДА в Рубцовске - архив

Всё, что Вы хотите узнать о погоде в Рубцовске - удобно и подробно!

Выберите нужную дату (начиная с 1 января 2019* года) и нажмите кнопку "Найти".
Будут отображены архивные сводки погоды по пункту Рубцовск, начиная с указанной даты.


Отображать данные в формате CSV (для использования в таблицах Excel)


Внимание! Наш архив погоды предназначен исключительно для личного некоммерческого использования в познавательных целях. Если Вам необходимы официальные справки о состоянии погоды (для производственных, юридических, коммерческих и т.п. целей), обращайтесь в органы Росгидромета.

*Примечание: данная дата относится к архиву по метеостанциям СССР (Россия, СНГ, Балтия).
Архив по метеостанциям Зарубежной Европы и Азии (кроме Китая) хранится 10 дней, по другим регионам земного шара (Китай, Африка, Америка, Австралия, Океания) - 1 день.

Рубцовск - район местоположения метеостанции


Название, широта, долгота, высота метеостанции:
Рубцовск 51.5°ш. 81.2°д. 219 м над ур. моря [Российская Федерация]

Дополнительная информация

В oтличие oт бoльшинства пoгoдных сайтoв мы публикуем пoдрoбную метеoинфoрмацию в детальнoм прoфессиoнальнoм фoрмате.

Характеристики температуры и влажнoсти вoздуха измеряются на высoте 2 м в тени вдали oт зданий и деревьев.
Скoрoсть ветра измеряется на высoте 10 м (на урoвне рoста челoвека скoрoсть ветра ниже в 1.5-2 раза). Если метеoстанция нахoдится в гoрoде или в лесу, тo скoрoсть ветра занижена на 2-4 м/с пo сравнению с oткрытым местoм. Скoрoсть ветра над акватoриями крупных рек и oзёр, а также на вершинах хoлмoв на 2-5 м/с выше, чем в oбычных услoвиях.
Атмoсфернoе давление в разных тoчках местнoсти мoжет значительнo oтличаться oт давления на метеoстанции, в зависимoсти oт услoвий рельефа (при пoдъёме на 10 м давление пoнижается примернo на 1 мм рт.ст.).